Location: Hilton Head Island
(32.2163°N, 80.7526°W)
Time: 03:24:03
(UTC-04:00)

Explorer 7 - Pass Details

Date: 23 February 2026
Orbit: 430 x 541 km, 50.2° (Epoch: 11 March)

Event Time Altitude Azimuth Distance (km) Brightness Sun altitude
Rises 12:19:40 0° 231° (SW) 2,381 10.4 48.0°
Reaches altitude 10° 12:21:46 10° 234° (SW) 1,517 9.5 48.0°
Maximum altitude 12:25:09 69° 318° (NW) 463 7.0 48.1°
Drops below altitude 10° 12:28:36 10° 43° (NE) 1,545 8.9 48.1°
Sets 12:30:46 0° 46° (NE) 2,429 9.8 48.1°
